User: anonymous   Login
Location: Unspecified
(0.0000°N, 0.0000°E)
Time: 18:11:01
(UTC+00:00)
Language:

SIRIUS FM-6 - Orbit

View from above orbital plane
View from above orbital plane
View from above satellite
View from above satellite

Ground track
Ground track

The orbit data is extracted from the following two-line orbital elements,

1 39360U 13058A   21203.38217101 -.00000027  00000-0  00000-0 0  9999
2 39360   0.0381 273.3921 0000487 119.7011 288.6675  1.00276864 28108
Epoch (UTC): 22 July 2021 09:10:19
Eccentricity: 0.0000487
inclination: 0.0381°
perigee height: 35783 km
apogee height: 35787 km
right ascension of ascending node: 273.3921°
argument of perigee: 119.7011°
revolutions per day: 1.00276864
mean anomaly at epoch: 288.6675°
orbit number at epoch: 2810

The dashed part of the orbit path shows where the satellite is in the earth's shadow,  

DLR